Find Starlink 34200

NORAD ID: 64186 Int'l Des: 2025-113 Owner: SPXS Country: US Constellation: starlink operational
LEOCIRCULAR

当前视图

正在加载3D地球...

About Starlink 34200

Starlink 34200 (NORAD 64186) is a starlink constellation satellite (v2 mini) launched May 28, 2025 by SPXS of US. It operates in LEO, CIRCULAR orbit with a mass of 575.00 kg.

即将过境

Passes for default location (London). Set your location on the main map for personalized predictions.

高度历史

Loading altitude history...

两行轨道根数

1 64186U 25113S 26265.24085818 .00008166 00000-0 27440-3 0 9995
2 64186 53.1613 256.3507 0001745 87.1973 272.9228 15.31728246 75188
Epoch: Sep 22, 2026 • Age: 7 hours

当前状态

高度 487.8 km
远地点 / 近地点 N/A
速度 7.62 km/s
星下点 -47.06°S, 69.99°W
发射日期 May 28, 2025
运行时间 1.3 years
类型 internet

技术详情

分类 Payload
质量 575.00 kg
干质量 530.00 kg
长度 0.30 m
跨度 29.00 m
形状 ? Box + pan
制造商 SPXS
平台类型 Starlink V2MO
阶段状态 In Orbit
所有者/国家 SPXS/US

Most Searched